CZ-4C DEB (50468 NORAD) Tracking and Keplerian Element Data

This shows tracking and keplerian element data for the satellite.

Feedback or suggestion? Click here.




ElementValue
Catalog50468
NameCZ-4C DEB
Epoch Orbit435
Epoch Day25.17858792
Epoch Year2022
RAAN102.9179
Inclination98.6563
Eccentricity0.0190216
Argument of Perigee241.5891
Mean Anonmoly116.6018
Mean Motion14.54623574
Decay Rate0.00298503
L11 50468U 21131D 22025.17858792 .00298503 00000+0 52860-1 0 9997
L22 50468 98.6563 102.9179 0190216 241.5891 116.6018 14.54623574 4356

Live tracking and technical data element details for CZ-4C DEB (NORAD 50468). CZ-4C DEB can be tracked NOW for your location showing map with azimuth and elevation plus other details from your city location.

Track the satellite on the map from your city or location and see movement details for azimuth, elevation, latitude, longitude, range, height, and movement on the map or in text.







IsCatalogInMostPopularTable: catalog: 50468, numindb: 20
Update: records affected: 1



GetName: 50468 CZ-4C DEB

Hit Count: updated at: Sun, 22 May 2022 04:39:58 GMT